�������l�o���
Date,Time,MP-1(��Sv/h),MP-2(��Sv/h),MP-3(��Sv/h),MP-4(��Sv/h),MP-5(��Sv/h),MP-6(��Sv/h),MP-7(��Sv/h),MP-8(��Sv/h),����,����(m/s),���J
2020/01/02,00:00,0.700,1.009,0.681,1.271,0.891,0.405,0.708,0.675,��,1.1,��
2020/01/02,00:10,0.702,1.010,0.680,1.269,0.889,0.404,0.708,0.673,���쐼,1.2,��
2020/01/02,00:20,0.702,1.009,0.681,1.270,0.890,0.404,0.709,0.674,���쐼,1.2,��
2020/01/02,00:30,0.700,1.010,0.682,1.274,0.890,0.403,0.709,0.673,���k��,1.2,��
2020/01/02,00:40,0.699,1.010,0.680,1.272,0.891,0.403,0.708,0.674,���k��,1.4,��
2020/01/02,00:50,0.700,1.010,0.681,1.275,0.889,0.404,0.708,0.673,�k��,2.2,��
2020/01/02,01:00,0.701,1.010,0.680,1.273,0.890,0.404,0.709,0.676,���k��,2.2,��
2020/01/02,01:10,0.700,1.009,0.681,1.272,0.891,0.404,0.709,0.673,���k��,1.4,��
2020/01/02,01:20,0.699,1.009,0.679,1.274,0.890,0.403,0.709,0.675,�k��,0.9,��
2020/01/02,01:30,0.700,1.008,0.681,1.272,0.890,0.403,0.710,0.673,�k�k��,1.1,��
2020/01/02,01:40,0.700,1.010,0.681,1.273,0.888,0.405,0.709,0.674,�k�k��,1.8,��
2020/01/02,01:50,0.700,1.008,0.678,1.273,0.890,0.403,0.708,0.672,�k,2.2,��
2020/01/02,02:00,0.701,1.011,0.680,1.272,0.889,0.404,0.710,0.673,�k,2.6,��
2020/01/02,02:10,0.699,1.009,0.681,1.274,0.889,0.401,0.708,0.674,�k,2.6,��
2020/01/02,02:20,0.701,1.009,0.678,1.274,0.889,0.404,0.709,0.673,�k�k��,1.9,��
2020/01/02,02:30,0.699,1.008,0.680,1.270,0.890,0.404,0.709,0.673,�k��,1.7,��
2020/01/02,02:40,0.698,1.009,0.680,1.273,0.890,0.403,0.708,0.675,�k��,2.8,��
2020/01/02,02:50,0.701,1.007,0.681,1.272,0.889,0.403,0.709,0.674,�k��,2.6,��
2020/01/02,03:00,0.701,1.010,0.679,1.271,0.891,0.404,0.708,0.675,�k�k��,1.6,��
2020/01/02,03:10,0.700,1.010,0.679,1.271,0.887,0.401,0.708,0.673,�k,2.2,��
2020/01/02,03:20,0.700,1.010,0.678,1.270,0.888,0.403,0.707,0.673,�k,2.0,��
2020/01/02,03:30,0.700,1.007,0.679,1.269,0.888,0.404,0.709,0.674,�k�k��,3.6,��
2020/01/02,03:40,0.700,1.008,0.678,1.270,0.887,0.403,0.708,0.673,�k�k��,3.1,��
2020/01/02,03:50,0.699,1.007,0.679,1.270,0.889,0.403,0.709,0.673,�k�k��,3.5,��
2020/01/02,04:00,0.699,1.008,0.679,1.272,0.888,0.402,0.708,0.673,�k��,3.6,��
2020/01/02,04:10,0.701,1.009,0.680,1.273,0.889,0.402,0.706,0.673,���k��,3.9,��
2020/01/02,04:20,0.698,1.010,0.680,1.271,0.889,0.404,0.708,0.672,�k��,2.8,��
2020/01/02,04:30,0.699,1.008,0.680,1.273,0.889,0.403,0.709,0.673,�k��,1.4,��
2020/01/02,04:40,0.699,1.008,0.678,1.271,0.889,0.402,0.709,0.673,-,CALM,��
2020/01/02,04:50,0.698,1.008,0.678,1.273,0.888,0.403,0.707,0.673,���쐼,1.6,��
2020/01/02,05:00,0.700,1.007,0.680,1.270,0.889,0.404,0.709,0.674,���쐼,1.5,��
2020/01/02,05:10,0.700,1.006,0.681,1.270,0.889,0.404,0.708,0.673,��,2.7,��
2020/01/02,05:20,0.698,1.007,0.679,1.272,0.888,0.403,0.709,0.673,���k��,2.2,��
2020/01/02,05:30,0.700,1.007,0.680,1.271,0.888,0.403,0.708,0.672,���k��,1.8,��
2020/01/02,05:40,0.698,1.007,0.680,1.271,0.888,0.402,0.708,0.674,�k��,2.3,��
2020/01/02,05:50,0.698,1.007,0.679,1.271,0.886,0.402,0.707,0.673,���k��,2.5,��
2020/01/02,06:00,0.699,1.006,0.679,1.271,0.886,0.402,0.706,0.673,�k��,2.6,��
2020/01/02,06:10,0.700,1.008,0.679,1.272,0.887,0.404,0.707,0.672,�k��,3.5,��
2020/01/02,06:20,0.699,1.008,0.680,1.270,0.889,0.403,0.709,0.672,�k��,3.1,��
2020/01/02,06:30,0.697,1.007,0.678,1.272,0.885,0.402,0.707,0.672,�k��,4.5,��
2020/01/02,06:40,0.698,1.008,0.678,1.270,0.887,0.404,0.710,0.674,�k�k��,4.5,��
2020/01/02,06:50,0.698,1.008,0.680,1.272,0.888,0.403,0.709,0.672,�k�k��,4.3,��
2020/01/02,07:00,0.699,1.007,0.679,1.270,0.888,0.403,0.708,0.673,�k��,3.4,��
2020/01/02,07:10,0.698,1.007,0.678,1.273,0.886,0.403,0.706,0.673,�k��,2.4,��
2020/01/02,07:20,0.699,1.007,0.680,1.271,0.888,0.403,0.708,0.674,���k��,5.2,��
2020/01/02,07:30,0.699,1.008,0.678,1.269,0.888,0.402,0.707,0.672,�k��,5.8,��
2020/01/02,07:40,0.699,1.009,0.679,1.273,0.888,0.402,0.707,0.673,���k��,4.6,��
2020/01/02,07:50,0.700,1.007,0.678,1.272,0.885,0.403,0.708,0.674,���k��,4.0,��
2020/01/02,08:00,0.697,1.006,0.680,1.270,0.889,0.402,0.710,0.674,�k��,3.0,��
2020/01/02,08:10,0.701,1.011,0.678,1.271,0.885,0.402,0.708,0.674,�k��,2.6,��
2020/01/02,08:20,0.699,1.008,0.679,1.272,0.887,0.403,0.707,0.673,�k��,3.8,��
2020/01/02,08:30,0.699,1.008,0.679,1.272,0.887,0.403,0.709,0.675,�k�k��,3.1,��
2020/01/02,08:40,0.700,1.009,0.679,1.272,0.885,0.403,0.709,0.677,�k�k��,1.5,��
2020/01/02,08:50,0.701,1.009,0.680,1.273,0.886,0.403,0.709,0.674,��쓌,0.9,��
2020/01/02,09:00,0.700,1.011,0.679,1.272,0.887,0.403,0.709,0.674,�쓌,1.5,��
2020/01/02,09:10,0.699,1.010,0.679,1.272,0.888,0.404,0.709,0.672,�쓌,1.1,��
2020/01/02,09:20,0.701,1.011,0.682,1.273,0.890,0.406,0.710,0.673,���쓌,1.1,��
2020/01/02,09:30,0.700,1.012,0.682,1.271,0.890,0.402,0.710,0.674,���쓌,1.3,��
2020/01/02,09:40,0.702,1.010,0.681,1.272,0.888,0.403,0.711,0.673,���쓌,1.4,��
2020/01/02,09:50,0.701,1.008,0.681,1.274,0.887,0.404,0.711,0.674,���k��,0.9,��
2020/01/02,10:00,0.700,1.010,0.681,1.272,0.889,0.403,0.710,0.675,���쓌,1.0,��
2020/01/02,10:10,0.701,1.009,0.682,1.272,0.888,0.404,0.709,0.674,���쓌,1.4,��
2020/01/02,10:20,0.701,1.008,0.681,1.273,0.889,0.403,0.708,0.674,��,1.4,��
2020/01/02,10:30,0.704,1.009,0.681,1.271,0.891,0.403,0.707,0.673,���쓌,1.7,��
2020/01/02,10:40,0.699,1.008,0.679,1.273,0.892,0.403,0.709,0.672,��,1.6,��
2020/01/02,10:50,0.703,1.010,0.681,1.273,0.889,0.404,0.708,0.675,��,1.9,��
2020/01/02,11:00,0.703,1.010,0.681,1.273,0.889,0.405,0.708,0.675,���k��,2.4,��
2020/01/02,11:10,0.704,1.011,0.679,1.274,0.891,0.404,0.708,0.673,�k��,1.9,��
2020/01/02,11:20,0.704,1.007,0.680,1.271,0.892,0.405,0.709,0.675,��,1.6,��
2020/01/02,11:30,0.703,1.011,0.679,1.274,0.891,0.405,0.710,0.674,��,2.1,��
2020/01/02,11:40,0.705,1.009,0.681,1.275,0.893,0.404,0.709,0.677,��,2.7,��
2020/01/02,11:50,0.705,1.011,0.680,1.274,0.894,0.406,0.708,0.675,���쓌,2.9,��
2020/01/02,12:00,0.704,1.012,0.682,1.274,0.893,0.405,0.710,0.675,�쓌,2.9,��
2020/01/02,12:10,0.705,1.012,0.682,1.274,0.892,0.404,0.711,0.676,�쓌,3.5,��
2020/01/02,12:20,0.702,1.012,0.681,1.273,0.894,0.406,0.711,0.676,�쓌,3.8,��
2020/01/02,12:30,0.704,1.013,0.683,1.273,0.891,0.405,0.712,0.674,���쓌,3.4,��
2020/01/02,12:40,0.704,1.012,0.682,1.276,0.896,0.405,0.711,0.677,��,3.4,��
2020/01/02,12:50,0.704,1.012,0.682,1.274,0.894,0.405,0.713,0.674,��,4.1,��
2020/01/02,13:00,0.705,1.014,0.682,1.275,0.894,0.405,0.712,0.676,���쓌,3.8,��
2020/01/02,13:10,0.704,1.015,0.682,1.272,0.894,0.405,0.712,0.674,��,3.0,��
2020/01/02,13:20,0.705,1.016,0.682,1.274,0.892,0.406,0.712,0.674,��,3.6,��
2020/01/02,13:30,0.704,1.015,0.683,1.276,0.894,0.405,0.713,0.673,��,3.5,��
2020/01/02,13:40,0.705,1.015,0.685,1.275,0.894,0.406,0.711,0.674,��,4.0,��
2020/01/02,13:50,0.706,1.016,0.682,1.277,0.894,0.406,0.712,0.672,���k��,2.6,��
2020/01/02,14:00,0.707,1.016,0.683,1.277,0.895,0.407,0.710,0.673,���k��,2.5,��
2020/01/02,14:10,0.705,1.014,0.683,1.275,0.894,0.406,0.711,0.674,���k��,2.7,��
2020/01/02,14:20,0.706,1.013,0.684,1.277,0.895,0.404,0.711,0.676,���k��,3.1,��
2020/01/02,14:30,0.705,1.016,0.683,1.274,0.895,0.406,0.712,0.675,���k��,2.4,��
2020/01/02,14:40,0.705,1.018,0.685,1.273,0.893,0.405,0.712,0.675,��,2.0,��
2020/01/02,14:50,0.705,1.018,0.685,1.273,0.895,0.406,0.711,0.676,���k��,2.3,��
2020/01/02,15:00,0.707,1.020,0.682,1.274,0.894,0.407,0.712,0.675,��,1.9,��
2020/01/02,15:10,0.705,1.020,0.683,1.276,0.893,0.405,0.711,0.674,��,1.9,��
2020/01/02,15:20,0.704,1.016,0.681,1.275,0.895,0.406,0.711,0.675,-,CALM,��
2020/01/02,15:30,0.703,1.016,0.683,1.274,0.893,0.407,0.711,0.677,-,CALM,��
2020/01/02,15:40,0.704,1.015,0.684,1.274,0.892,0.405,0.712,0.676,�k��,1.0,��
2020/01/02,15:50,0.705,1.016,0.683,1.274,0.893,0.406,0.711,0.674,�k�k��,2.0,��
2020/01/02,16:00,0.704,1.014,0.683,1.275,0.894,0.405,0.710,0.673,�k��,3.2,��
2020/01/02,16:10,0.704,1.016,0.682,1.273,0.893,0.405,0.710,0.674,�k��,3.5,��
2020/01/02,16:20,0.704,1.015,0.682,1.272,0.891,0.404,0.712,0.674,�k��,2.9,��
2020/01/02,16:30,0.702,1.015,0.683,1.274,0.893,0.406,0.710,0.675,�k��,2.3,��
2020/01/02,16:40,0.703,1.015,0.682,1.272,0.894,0.406,0.709,0.674,���k��,2.7,��
2020/01/02,16:50,0.703,1.013,0.681,1.274,0.893,0.405,0.711,0.674,���k��,3.3,��
2020/01/02,17:00,0.705,1.016,0.681,1.273,0.892,0.405,0.709,0.674,���k��,3.6,��
2020/01/02,17:10,0.701,1.016,0.681,1.274,0.891,0.406,0.709,0.675,���k��,2.1,��
2020/01/02,17:20,0.702,1.012,0.683,1.274,0.892,0.405,0.709,0.675,���k��,2.3,��
2020/01/02,17:30,0.704,1.017,0.683,1.273,0.892,0.404,0.710,0.674,�k�k��,2.3,��
2020/01/02,17:40,0.704,1.014,0.681,1.273,0.891,0.405,0.709,0.673,�k�k��,2.5,��
2020/01/02,17:50,0.702,1.015,0.682,1.276,0.892,0.403,0.710,0.674,�k�k��,2.7,��
2020/01/02,18:00,0.702,1.015,0.682,1.274,0.891,0.406,0.709,0.675,�k�k��,2.9,��
2020/01/02,18:10,0.701,1.014,0.681,1.272,0.892,0.405,0.711,0.673,�k�k��,3.9,��
2020/01/02,18:20,0.702,1.014,0.681,1.272,0.892,0.405,0.711,0.673,�k�k��,3.6,��
2020/01/02,18:30,0.700,1.013,0.681,1.274,0.892,0.406,0.709,0.675,�k�k��,4.5,��
2020/01/02,18:40,0.702,1.013,0.681,1.274,0.893,0.405,0.709,0.675,�k�k��,5.0,��
2020/01/02,18:50,0.702,1.013,0.683,1.273,0.892,0.404,0.711,0.673,�k�k��,4.7,��
2020/01/02,19:00,0.704,1.012,0.681,1.272,0.894,0.406,0.711,0.675,�k��,4.9,��
2020/01/02,19:10,0.702,1.013,0.682,1.274,0.892,0.404,0.711,0.673,�k�k��,4.9,��
2020/01/02,19:20,0.700,1.013,0.681,1.276,0.893,0.404,0.710,0.675,�k�k��,5.5,��
2020/01/02,19:30,0.702,1.013,0.681,1.275,0.894,0.404,0.709,0.674,�k�k��,4.9,��
2020/01/02,19:40,0.701,1.012,0.682,1.271,0.892,0.405,0.710,0.674,�k�k��,5.0,��
2020/01/02,19:50,0.701,1.012,0.682,1.274,0.892,0.404,0.709,0.674,�k��,5.2,��
2020/01/02,20:00,0.702,1.013,0.682,1.276,0.892,0.402,0.711,0.675,�k��,4.7,��
2020/01/02,20:10,0.700,1.012,0.681,1.275,0.891,0.404,0.709,0.673,�k�k��,5.2,��
2020/01/02,20:20,0.702,1.013,0.682,1.275,0.892,0.403,0.710,0.674,�k��,3.9,��
2020/01/02,20:30,0.701,1.011,0.680,1.275,0.891,0.404,0.709,0.673,�k��,3.0,��
2020/01/02,20:40,0.702,1.015,0.680,1.275,0.891,0.404,0.709,0.673,�k��,4.1,��
2020/01/02,20:50,0.701,1.013,0.681,1.273,0.891,0.404,0.709,0.675,�k��,2.1,��
2020/01/02,21:00,0.700,1.012,0.681,1.274,0.891,0.403,0.709,0.674,���k��,0.6,��
2020/01/02,21:10,0.701,1.014,0.682,1.273,0.893,0.405,0.707,0.675,-,CALM,��
2020/01/02,21:20,0.700,1.013,0.682,1.274,0.890,0.403,0.708,0.675,�k,0.9,��
2020/01/02,21:30,0.701,1.014,0.682,1.275,0.892,0.404,0.709,0.675,�k,1.5,��
2020/01/02,21:40,0.700,1.012,0.681,1.273,0.890,0.405,0.710,0.674,�k�k��,1.1,��
2020/01/02,21:50,0.703,1.010,0.681,1.277,0.891,0.403,0.708,0.674,�k�k��,1.7,��
2020/01/02,22:00,0.703,1.011,0.682,1.273,0.893,0.404,0.709,0.675,�k�k��,2.4,��
2020/01/02,22:10,0.699,1.011,0.682,1.272,0.890,0.404,0.709,0.675,�k�k��,1.8,��
2020/01/02,22:20,0.701,1.012,0.681,1.274,0.892,0.403,0.709,0.675,�k,0.7,��
2020/01/02,22:30,0.702,1.012,0.684,1.274,0.890,0.403,0.708,0.674,�k�k��,1.0,��
2020/01/02,22:40,0.702,1.012,0.682,1.275,0.892,0.403,0.708,0.674,�k��,2.4,��
2020/01/02,22:50,0.701,1.012,0.681,1.275,0.892,0.402,0.707,0.673,���k��,1.5,��
2020/01/02,23:00,0.700,1.010,0.679,1.275,0.890,0.403,0.707,0.674,�k��,2.9,��
2020/01/02,23:10,0.700,1.013,0.680,1.274,0.891,0.405,0.709,0.674,��,2.4,��
2020/01/02,23:20,0.701,1.010,0.681,1.274,0.891,0.403,0.709,0.673,���k��,2.2,��
2020/01/02,23:30,0.702,1.012,0.681,1.273,0.891,0.404,0.709,0.674,��,3.3,��
2020/01/02,23:40,0.700,1.011,0.681,1.271,0.890,0.404,0.709,0.673,��,4.1,��
2020/01/02,23:50,0.700,1.011,0.680,1.274,0.891,0.402,0.710,0.674,��,4.2,��
